GW1546 Weather Reports


time (UTC)temp
C
wind
direction
speed
KPH
gust
KPH
rain 1hr
cm
rain 24hr
cm
rain mn
cm
humidity
%
barometer
mb
20260510192731 23 86 0.0 3.2 0.00 0.00 0.00 66 986.7
20260510192132 23 85 1.6 3.2 0.00 0.00 0.00 61 986.7
20260510191534 22 11 1.6 1.6 0.00 0.00 0.00 67 987.1
20260510190926 22 185 1.6 3.2 0.00 0.00 0.00 57 986.7
20260510190319 23 91 1.6 4.8 0.00 0.00 0.00 58 986.7
20260510185121 24 62 1.6 3.2 0.00 0.00 0.00 57 986.7
20260510184544 24 22 0.0 1.6 0.00 0.00 0.00 54 986.7
20260510183943 24 289 1.6 1.6 0.00 0.00 0.00 58 986.4
20260510183349 24 55 0.0 3.2 0.00 0.00 0.00 57 986.4
20260510182738 24 157 0.0 1.6 0.00 0.00 0.00 58 986.4
20260510182115 24 233 3.2 3.2 0.00 0.00 0.00 53 986.4
20260510181544 24 310 1.6 3.2 0.00 0.00 0.00 53 986.1
20260510180934 24 302 3.2 4.8 0.00 0.00 0.00 50 986.7
20260510180317 25 10 1.6 3.2 0.00 0.00 0.00 45 986.4
20260510175741 25 263 3.2 6.4 0.00 0.00 0.00 43 986.4
20260510175152 25 91 9.7 14.5 0.00 0.00 0.00 42 986.4
20260510173950 26 302 1.6 4.8 0.00 0.00 0.00 42 986.1
20260510173326 27 259 0.0 6.4 0.00 0.00 0.00 44 986.1
20260510172724 26 47 1.6 12.9 0.00 0.00 0.00 39 986.1
20260510172111 26 12 6.4 17.7 0.00 0.00 0.00 42 985.7
20260510170336 26 285 0.0 6.4 0.00 0.00 0.00 40 986.4
20260510165751 26 346 6.4 11.3 0.00 0.00 0.00 41 986.4
20260510164545 26 229 6.4 9.7 0.00 0.00 0.00 42 986.4
20260510163944 26 95 1.6 1.6 0.00 0.00 0.00 46 986.4
20260510162725 26 179 3.2 4.8 0.00 0.00 0.00 42 986.7
20260510161529 25 33 6.4 16.1 0.00 0.00 0.00 44 986.7
20260510160950 25 239 3.2 9.7 0.00 0.00 0.00 46 986.7
20260510155736 24 288 0.0 4.8 0.00 0.00 0.00 47 987.1
20260510155150 24 25 4.8 12.9 0.00 0.00 0.00 49 987.1
20260510154523 24 71 3.2 4.8 0.00 0.00 0.00 52 987.1
20260510153949 24 229 0.0 1.6 0.00 0.00 0.00 48 987.1
20260510153322 23 121 12.9 14.5 0.00 0.00 0.00 50 987.1
20260510152734 24 60 1.6 3.2 0.00 0.00 0.00 60 987.1
20260510152149 25 264 3.2 4.8 0.00 0.00 0.00 49 987.1
20260510151535 24 239 1.6 3.2 0.00 0.00 0.00 54 987.1
20260510150914 23 61 1.6 3.2 0.00 0.00 0.00 55 987.4
20260510150339 23 79 0.0 1.6 0.00 0.00 0.00 70 987.4
20260510145717 22 73 1.6 4.8 0.00 0.00 0.00 68 987.4
20260510145138 21 55 0.0 3.2 0.00 0.00 0.00 76 987.4
20260510144510 20 337 1.6 1.6 0.00 0.00 0.00 77 987.4
20260510143927 20 312 0.0 1.6 0.00 0.00 0.00 78 987.8
20260510143335 20 18 0.0 0.0 0.00 0.00 0.00 80 987.4
20260510142713 19 18 0.0 0.0 0.00 0.00 0.00 83 987.4
20260510142128 19 8 1.6 3.2 0.00 0.00 0.00 79 987.4
20260510140929 20 11 0.0 3.2 0.00 0.00 0.00 77 987.4
20260510135715 18 68 1.6 1.6 0.00 0.00 0.00 79 987.4
20260510135116 17 102 0.0 1.6 0.00 0.00 0.00 82 987.1
20260510134511 17 92 1.6 4.8 0.00 0.00 0.00 82 987.4
20260510133348 16 47 0.0 1.6 0.00 0.00 0.00 84 987.4
20260510132749 15 72 1.6 4.8 0.00 0.00 0.00 85 987.4
20260510131517 15 68 1.6 1.6 0.00 0.00 0.00 87 987.8
20260510130920 14 35 3.2 4.8 0.00 0.00 0.00 87 987.8
20260510130331 14 324 0.0 1.6 0.00 0.00 0.00 88 988.1
20260510125751 14 55 0.0 3.2 0.00 0.00 0.00 88 988.1
20260510125144 13 94 0.0 1.6 0.00 0.00 0.00 90 987.8
20260510123308 11 36 1.6 3.2 0.00 0.00 0.00 97 988.1
20260510122730 11 170 1.6 3.2 0.00 0.00 0.00 98 988.1
20260510122134 10 167 1.6 3.2 0.00 0.00 0.00 98 988.1
20260510121511 10 161 0.0 1.6 0.00 0.00 0.00 98 988.4
20260510120949 10 182 0.0 1.6 0.00 0.00 0.00 98 988.1
20260510115743 10 182 0.0 1.6 0.00 0.00 0.00 99 987.8
20260510114518 10 105 1.6 3.2 0.00 0.00 0.00 99 987.8
20260510113914 9 221 0.0 1.6 0.00 0.00 0.00 99 987.8
20260510112710 9 177 3.2 4.8 0.00 0.00 0.00 99 987.4
20260510112131 9 219 3.2 3.2 0.00 0.00 0.00 99 987.1
20260510111532 8 105 1.6 3.2 0.00 0.00 0.00 99 987.4
20260510110933 8 103 0.0 3.2 0.00 0.00 0.00 99 987.1
20260510110312 8 176 1.6 3.2 0.00 0.00 0.00 99 987.1
20260510105747 8 171 3.2 3.2 0.00 0.00 0.00 99 987.1
20260510105143 8 209 0.0 3.2 0.00 0.00 0.00 99 987.1
20260510103935 8 198 0.0 3.2 0.00 0.00 0.00 99 986.7
20260510103324 8 193 1.6 3.2 0.00 0.00 0.00 99 986.7
20260510102717 8 147 3.2 3.2 0.00 0.00 0.00 99 986.7
20260510102142 8 190 1.6 3.2 0.00 0.00 0.00 99 986.7
20260510101511 8 148 0.0 4.8 0.00 0.00 0.00 99 986.7
20260510100351 8 206 0.0 1.6 0.00 0.00 0.00 99 986.7
20260510095710 8 184 3.2 4.8 0.00 0.00 0.00 99 986.4
20260510095139 8 177 3.2 3.2 0.00 0.00 0.00 99 986.4
20260510094539 8 189 3.2 3.2 0.00 0.00 0.00 99 986.4
20260510093908 8 193 1.6 3.2 0.00 0.00 0.00 99 986.4
20260510093327 8 182 1.6 3.2 0.00 0.00 0.00 99 986.1
20260510092725 8 183 1.6 3.2 0.00 0.00 0.00 99 986.1
20260510092129 8 187 1.6 3.2 0.00 0.00 0.00 99 986.1
20260510091537 8 181 1.6 3.2 0.00 0.00 0.00 99 985.7
20260510090909 8 193 1.6 3.2 0.00 0.00 0.00 99 986.1
20260510090341 8 181 3.2 3.2 0.00 0.00 0.00 99 986.1
20260510085716 8 188 1.6 1.6 0.00 0.00 0.00 99 985.7
20260510083948 9 196 3.2 3.2 0.00 0.00 0.00 99 985.7
20260510083352 9 184 0.0 1.6 0.00 0.00 0.00 99 985.7
20260510082744 9 172 1.6 3.2 0.00 0.00 0.00 99 985.7
20260510082119 8 133 1.6 1.6 0.00 0.00 0.00 99 985.7
20260510081549 8 188 0.0 3.2 0.00 0.00 0.00 99 985.7
20260510080918 8 201 1.6 1.6 0.00 0.00 0.00 99 985.7
20260510080327 8 118 1.6 3.2 0.00 0.00 0.00 99 985.7
20260510075750 8 187 3.2 4.8 0.00 0.00 0.00 99 985.7
20260510074542 8 196 3.2 3.2 0.00 0.00 0.00 99 985.7
20260510073942 9 220 1.6 3.2 0.00 0.00 0.00 99 985.4
20260510073347 9 165 1.6 3.2 0.00 0.00 0.00 99 985.7
20260510072734 9 173 1.6 1.6 0.00 0.00 0.00 99 985.4
20260510072126 8 204 3.2 4.8 0.00 0.00 0.00 99 985.1
20260510071546 9 164 1.6 3.2 0.00 0.00 0.00 99 985.4
20260510070925 9 175 3.2 3.2 0.00 0.00 0.00 99 985.4
20260510070312 9 153 0.0 4.8 0.00 0.00 0.00 99 985.1
20260510065734 8 175 3.2 3.2 0.00 0.00 0.00 99 985.1
20260510065141 8 188 1.6 1.6 0.00 0.00 0.00 99 985.1
20260510063923 9 180 3.2 4.8 0.00 0.00 0.00 99 985.4
20260510063330 9 104 1.6 3.2 0.00 0.00 0.00 99 985.4
20260510062709 9 208 0.0 3.2 0.00 0.00 0.00 99 985.4
20260510062146 9 174 0.0 1.6 0.00 0.00 0.00 99 985.4
20260510061534 9 120 0.0 3.2 0.00 0.00 0.00 99 985.1
20260510060949 9 210 0.0 0.0 0.00 0.00 0.00 99 985.4
20260510060341 9 210 0.0 1.6 0.00 0.00 0.00 99 985.4
20260510055725 9 191 1.6 3.2 0.00 0.00 0.00 99 985.4
20260510055118 9 223 0.0 1.6 0.00 0.00 0.00 99 985.7
20260510054538 9 207 0.0 3.2 0.00 0.00 0.00 99 985.7
20260510053314 10 167 0.0 1.6 0.00 0.00 0.00 99 985.4
20260510052149 9 190 1.6 3.2 0.00 0.00 0.00 99 985.7
20260510051548 10 192 1.6 1.6 0.00 0.00 0.00 99 985.4
20260510050912 10 182 0.0 0.0 0.00 0.00 0.00 99 985.4
20260510050332 10 182 0.0 0.0 0.00 0.00 0.00 99 985.4
20260510045721 10 182 1.6 1.6 0.00 0.00 0.00 99 985.4
20260510045110 10 182 0.0 1.6 0.00 0.00 0.00 99 985.4
20260510043931 10 185 3.2 3.2 0.00 0.00 0.00 99 985.4
20260510043338 10 181 1.6 1.6 0.00 0.00 0.00 99 985.1
20260510042711 10 168 1.6 3.2 0.00 0.00 0.00 99 985.4
20260510042145 10 176 0.0 1.6 0.00 0.00 0.00 99 985.4
20260510041533 10 176 0.0 1.6 0.00 0.00 0.00 99 985.7
20260510040924 10 185 0.0 1.6 0.00 0.00 0.00 99 985.7
20260510040343 10 185 0.0 1.6 0.00 0.00 0.00 99 985.4
20260510035747 10 185 0.0 0.0 0.00 0.00 0.00 99 985.4
20260510035123 10 184 0.0 1.6 0.00 0.00 0.00 99 985.4
20260510034541 10 184 0.0 1.6 0.00 0.00 0.00 99 985.4
20260510033910 11 189 1.6 1.6 0.00 0.00 0.00 99 985.1
20260510033316 11 176 0.0 0.0 0.00 0.00 0.00 99 985.1
20260510032752 11 176 0.0 1.6 0.00 0.00 0.00 99 985.1
20260510032147 11 178 1.6 3.2 0.00 0.00 0.00 99 985.1
20260510031524 11 184 3.2 3.2 0.00 0.00 0.00 99 985.1
20260510030919 11 188 0.0 3.2 0.00 0.00 0.00 99 985.1
20260510030328 11 171 3.2 4.8 0.00 0.00 0.00 99 985.1
20260510025732 11 179 1.6 3.2 0.00 0.00 0.00 99 985.1
20260510025123 11 193 1.6 3.2 0.00 0.00 0.00 99 985.1
20260510023940 11 192 0.0 1.6 0.00 0.00 0.00 99 985.1
20260510022739 11 209 0.0 0.0 0.00 0.00 0.00 98 984.7
20260510021510 12 191 3.2 3.2 0.00 0.00 0.00 98 984.7
20260510020952 12 202 0.0 0.0 0.00 0.00 0.00 97 984.7
20260510015740 12 202 0.0 1.6 0.00 0.00 0.00 97 984.0
20260510015143 12 201 0.0 1.6 0.00 0.00 0.00 97 984.4
20260510014511 12 205 0.0 0.0 0.00 0.00 0.00 96 984.0
20260510013946 12 204 0.0 1.6 0.00 0.00 0.00 96 984.0
20260510012725 12 204 0.0 1.6 0.00 0.00 0.00 95 984.0
20260510012131 13 175 0.0 0.0 0.00 0.00 0.00 95 983.7
20260510011556 13 228 0.0 0.0 0.00 0.00 0.00 94 983.7
20260510010951 13 196 0.0 0.0 0.00 0.00 0.00 94 983.4
20260510010348 13 202 0.0 3.2 0.00 0.00 0.00 93 983.4
20260510005143 13 183 0.0 0.0 0.00 0.00 0.00 92 983.0
20260510004550 14 184 0.0 1.6 0.00 0.00 0.00 91 983.0
20260510003307 15 111 0.0 1.6 0.00 0.00 0.00 89 982.7
20260510002716 15 236 0.0 0.0 0.00 0.00 0.00 88 983.0
20260510001511 15 215 0.0 0.0 0.00 0.00 0.00 85 983.0
20260510000943 15 200 0.0 0.0 0.00 0.00 0.00 85 982.7
20260510000349 16 190 3.2 3.2 0.00 0.00 0.00 84 982.7
20260509235710 16 300 0.0 0.0 0.00 0.00 0.00 83 982.3
20260509235126 16 7 0.0 0.0 0.00 0.00 0.00 82
20260509234543 16 254 0.0 0.0 0.00 0.00 0.00 80 982.3
20260509233949 16 266 0.0 0.0 0.00 0.00 0.00 80 982.3
20260509233339 17 262 1.6 1.6 0.00 0.00 0.00 77 982.3
20260509232130 17 267 0.0 1.6 0.00 0.00 0.00 75 982.3
20260509231509 18 306 0.0 1.6 0.00 0.00 0.00 74 982.3
20260509230951 18 309 1.6 1.6 0.00 0.00 0.00 71 982.3
20260509230332 18 306 0.0 1.6 0.00 0.00 0.00 70 982.3
20260509225146 20 66 4.8 4.8 0.00 0.00 0.00 66
20260509224535 20 41 3.2 14.5 0.00 0.00 0.00 57 982.3
20260509223928 20 85 0.0 3.2 0.00 0.00 0.00 59 982.3
20260509223343 21 41 0.0 1.6 0.00 0.00 0.00 61 982.3
20260509222130 21 75 4.8 6.4 0.00 0.00 0.00 58 982.3
20260509220918 22 167 1.6 3.2 0.00 0.00 0.00 56 982.3
20260509220325 21 298 0.0 1.6 0.00 0.00 0.00 57 982.3
20260509215723 21 208 3.2 3.2 0.00 0.00 0.00 54 982.7
20260509215134 21 237 1.6 6.4 0.00 0.00 0.00 54 982.3
20260509214520 21 189 1.6 6.4 0.00 0.00 0.00 55 982.3
20260509213335 21 336 0.0 0.0 0.00 0.00 0.00 58 982.3
20260509212739 21 348 0.0 1.6 0.00 0.00 0.00 61 982.3
20260509212145 21 57 0.0 1.6 0.00 0.00 0.00 60 982.3
20260509211542 21 68 0.0 1.6 0.00 0.00 0.00 58 982.3
20260509210931 21 159 3.2 6.4 0.00 0.00 0.00 55 982.3
20260509210318 22 190 0.0 0.0 0.00 0.00 0.00 59 982.3
20260509205747 22 0 0.0 0.0 0.00 0.00 0.00 56 982.3
20260509205134 21 124 1.6 3.2 0.00 0.00 0.00 53 982.3
20260509204537 21 107 1.6 3.2 0.00 0.00 0.00 57 982.3
20260509203950 21 106 6.4 6.4 0.00 0.00 0.00 55 982.3
20260509203321 22 326 4.8 9.7 0.00 0.00 0.00 53 982.3
20260509202753 22 152 0.0 1.6 0.00 0.00 0.00 52
20260509202126 22 66 0.0 3.2 0.00 0.00 0.00 54
20260509201532 21 45 1.6 4.8 0.00 0.00 0.00 52
20260509200939 21 83 1.6 11.3 0.00 0.00 0.00 53
20260509200309 21 289 1.6 1.6 0.00 0.00 0.00 52
20260509195125 22 301 4.8 9.7 0.00 0.00 0.00 49
20260509193915 21 335 4.8 4.8 0.00 0.00 0.00 51
20260509193337 21 25 1.6 3.2 0.00 0.00 0.00 58